Location: Brede
(50.9167°N, 0.6000°E)
Time: 08:39:08
(UTC+00:00)

Tiros 1 - Pass Details

Date: 28 November 2020
Orbit: 630 x 663 km, 48.4° (Epoch: 16 January)

Event Time Altitude Azimuth Distance (km) Brightness Sun altitude
Rises 18:07:05 0° 263° (W) 2,990 12.2 -19.8°
Reaches altitude 10° 18:09:26 10° 260° (W) 2,075 11.0 -20.2°
Maximum altitude 18:14:11 66° 179° (S) 718 7.3 -20.9°
Enters shadow 18:15:22 47° 119° (ESE) 866 7.4 -21.1°
